KQ4HDO Weather Reports


time (UTC)temp
C
wind
direction
speed
KPH
gust
KPH
rain 1hr
cm
rain 24hr
cm
rain mn
cm
humidity
%
barometer
mb
20260504180003 22 194 3.2 8.0 0.00 0.23 0.13 57 1004.0
20260504175503 22 239 3.2 9.7 0.00 0.23 0.13 57 1004.1
20260504175003 22 173 3.2 9.7 0.00 0.23 0.13 57 1003.8
20260504174503 22 220 3.2 11.3 0.00 0.23 0.13 57 1004.0
20260504174003 22 214 4.8 11.3 0.00 0.23 0.13 57 1003.9
20260504173503 21 199 3.2 11.3 0.00 0.23 0.13 61 1004.0
20260504173003 21 193 1.6 6.4 0.00 0.23 0.13 62 1004.0
20260504172503 21 307 1.6 6.4 0.00 0.23 0.13 64 1004.1
20260504172003 20 296 3.2 20.9 0.00 0.23 0.13 62 1004.1
20260504171503 20 188 3.2 20.9 0.00 0.23 0.13 62 1003.8
20260504171217 20 192 4.8 14.5 0.00 0.23 0.13 62 1003.8
20260504170503 20 199 4.8 14.5 0.00 0.23 0.13 62 1004.2
20260504170217 21 188 4.8 9.7 0.00 0.23 0.13 62 1004.2
20260504151003 16 279 3.2 8.0 0.08 0.23 0.13 74 1005.8
20260504150503 16 325 1.6 11.3 0.10 0.23 0.13 74 1005.3
20260504141003 16 180 3.2 9.7 0.05 0.15 0.05 75 1005.7
20260504140503 17 274 1.6 8.0 0.03 0.13 0.03 70 1006.0
20260504130503 17 189 6.4 14.5 0.00 0.10 0.00 67 1005.9
20260504110503 12 193 0.0 3.2 0.00 0.10 0.00 88 1006.5
20260504100503 13 192 1.6 4.8 0.00 0.10 0.00 87 1007.0
20260504082003 14 197 1.6 8.0 0.00 0.10 0.00 82 1006.2
20260504081503 13 208 3.2 8.0 0.00 0.10 0.00 87 1006.5
20260504081003 13 208 1.6 4.8 0.00 0.10 0.00 89 1006.7
20260504080503 12 209 1.6 4.8 0.00 0.10 0.00 90 1006.6
20260504050503 13 282 0.0 3.2 0.00 0.10 0.00 92 1007.4
20260504050003 13 360 0.0 3.2 0.00 0.10 0.00 92 1007.5
20260504045717 13 205 0.0 3.2 0.00 0.10 0.10 91 1007.4
20260504045003 13 205 0.0 3.2 0.00 0.10 0.10 91 1007.3
20260504044504 14 0 0.0 0.0 0.00 0.10 0.10 91 1007.3
20260504044003 14 360 0.0 3.2 0.00 0.10 0.10 91 1007.4
20260504043503 14 205 0.0 3.2 0.00 0.10 0.10 90 1007.4
20260504043003 14 360 0.0 1.6 0.00 0.10 0.10 91 1007.4
20260504042503 14 360 0.0 1.6 0.00 0.10 0.10 90 1007.2
20260504042003 14 264 0.0 3.2 0.00 0.10 0.10 90 1007.3
20260504041503 15 205 0.0 4.8 0.03 0.10 0.10 89 1007.4
20260504041003 15 197 3.2 4.8 0.10 0.10 0.10 90 1007.4
20260504040503 14 196 3.2 4.8 0.10 0.10 0.10 90 1007.4
20260504040218 14 164 1.6 4.8 0.10 0.10 0.10 90 1007.5
20260504035503 15 80 0.0 3.2 0.10 0.10 0.10 89 1007.8
20260504035003 15 161 0.0 3.2 0.10 0.10 0.10 89 1007.8
20260504034503 15 360 0.0 3.2 0.10 0.10 0.10 88 1008.1
20260504034003 15 245 3.2 3.2 0.10 0.10 0.10 88 1008.2
20260504033503 15 268 0.0 3.2 0.10 0.10 0.10 86 1008.2
20260504033003 15 263 1.6 3.2 0.10 0.10 0.10 84 1008.1
20260504032503 16 171 0.0 6.4 0.10 0.10 0.10 81 1008.2
20260504032003 16 171 1.6 8.0 0.10 0.10 0.10 77 1008.5
20260504031503 17 204 3.2 8.0 0.08 0.08 0.08 74 1008.9
20260504031003 16 276 3.2 6.4 0.00 0.00 0.00 73 1008.6
20260504030503 17 281 1.6 3.2 0.00 0.00 0.00 74 1007.6
20260504030003 17 360 0.0 3.2 0.00 0.00 0.00 71 1007.5
20260504025503 17 281 0.0 3.2 0.00 0.00 0.00 70 1007.7
20260504025003 17 281 0.0 1.6 0.00 0.00 0.00 70 1007.6
20260504024503 17 0 0.0 0.0 0.00 0.00 0.00 70 1007.7
20260504024003 17 0 0.0 0.0 0.00 0.00 0.00 69 1007.8
20260504023503 18 0 0.0 0.0 0.00 0.00 0.00 69 1007.7
20260504023003 18 0 0.0 0.0 0.00 0.00 0.00 68 1007.8
20260504022503 18 0 0.0 0.0 0.00 0.00 0.00 67 1007.6
20260504022003 18 0 0.0 0.0 0.00 0.00 0.00 67 1007.7
20260504021503 18 0 0.0 0.0 0.00 0.00 0.00 64 1007.6
20260504021217 19 360 0.0 0.0 0.00 0.00 0.00 62 1007.6
20260504020504 20 360 0.0 3.2 0.00 0.00 0.00 60 1007.6
20260504020003 20 320 0.0 3.2 0.00 0.00 0.00 59 1007.9
20260504015718 20 281 0.0 3.2 0.00 0.00 0.00 59 1007.9
20260504015003 20 360 0.0 1.6 0.00 0.00 0.00 60 1007.9
20260504014718 20 360 0.0 1.6 0.00 0.00 0.00 62 1007.9
20260504014003 20 360 0.0 3.2 0.00 0.00 0.00 58 1007.8
20260504013503 20 281 0.0 3.2 0.00 0.00 0.00 58 1007.7
20260504013003 20 0 0.0 0.0 0.00 0.00 0.00 58 1007.7
20260504012503 21 0 0.0 0.0 0.00 0.00 0.00 57 1007.7
20260504012003 21 0 0.0 0.0 0.00 0.00 0.00 54 1007.7
20260504011503 22 0 0.0 0.0 0.00 0.00 0.00 52 1007.6
20260504011003 22 0 0.0 0.0 0.00 0.00 0.00 52 1007.6
20260504010503 22 0 0.0 0.0 0.00 0.00 0.00 51 1007.6
20260504010003 22 0 0.0 0.0 0.00 0.00 0.00 49 1007.6
20260504005503 22 360 0.0 0.0 0.00 0.00 0.00 48 1007.5
20260504005004 23 360 0.0 1.6 0.00 0.00 0.00 46 1007.5
20260504004718 23 320 0.0 1.6 0.00 0.00 0.00 46 1007.4
20260504004003 23 360 0.0 3.2 0.00 0.00 0.00 47 1007.4
20260504003503 23 320 0.0 3.2 0.00 0.00 0.00 45 1007.4
20260504003003 23 281 0.0 3.2 0.00 0.00 0.00 45 1007.4
20260504002503 23 320 0.0 3.2 0.00 0.00 0.00 45 1007.5
20260504002003 23 281 1.6 3.2 0.00 0.00 0.00 45 1007.6
20260504001503 23 281 1.6 3.2 0.00 0.00 0.00 45 1007.5
20260504001003 23 281 1.6 6.4 0.00 0.00 0.00 44 1007.5
20260504000717 24 281 1.6 6.4 0.00 0.00 0.00 44 1007.5
20260504000003 24 279 3.2 6.4 0.00 0.00 0.00 44 1007.6
20260503235503 24 268 1.6 4.8 0.00 0.00 0.00 43 1007.6
20260503235216 24 275 1.6 4.8 0.00 0.00 0.00 43 1007.6
20260503234503 24 251 1.6 3.2 0.00 0.00 0.00 42 1007.5
20260503234003 25 219 0.0 8.0 0.00 0.00 0.00 42 1007.5
20260503233717 25 205 0.0 8.0 0.00 0.00 0.00 40 1007.5
20260503233003 25 208 3.2 8.0 0.00 0.00 0.00 40 1007.5
20260503232503 25 239 1.6 14.5 0.00 0.00 0.00 40 1007.5
20260503232003 25 236 1.6 14.5 0.00 0.00 0.00 40 1007.5
20260503231503 25 263 1.6 14.5 0.00 0.00 0.00 40 1007.5
20260503231003 25 235 4.8 14.5 0.00 0.00 0.00 39 1007.5
20260503230503 25 269 4.8 17.7 0.00 0.00 0.00 39 1007.7
20260503230003 25 252 4.8 17.7 0.00 0.00 0.00 38 1007.7
20260503225503 25 244 4.8 16.1 0.00 0.00 0.00 38 1007.7
20260503225218 25 245 4.8 17.7 0.00 0.00 0.00 37 1007.7
20260503224503 26 301 8.0 17.7 0.00 0.00 0.00 37 1007.7
20260503224003 26 228 4.8 17.7 0.00 0.00 0.00 36 1007.7
20260503223503 26 236 3.2 17.7 0.00 0.00 0.00 37 1007.8
20260503223003 26 251 4.8 22.5 0.00 0.00 0.00 37 1007.8
20260503222504 25 245 4.8 22.5 0.00 0.00 0.00 36 1007.7
20260503222003 25 238 4.8 12.9 0.00 0.00 0.00 37 1007.9
20260503221503 26 211 6.4 11.3 0.00 0.00 0.00 36 1007.9
20260503221218 26 248 3.2 27.4 0.00 0.00 0.00 37 1008.0
20260503220717 26 230 4.8 27.4 0.00 0.00 0.00 36 1008.0
20260503220218 26 206 9.7 27.4 0.00 0.00 0.00 36 1008.0
20260503215503 25 268 4.8 19.3 0.00 0.00 0.00 36 1008.1
20260503215003 25 241 4.8 16.1 0.00 0.00 0.00 37 1008.2
20260503214719 25 239 4.8 32.2 0.00 0.00 0.00 36 1008.2
20260503214003 25 223 9.7 32.2 0.00 0.00 0.00 36 1008.2
20260503213503 25 226 6.4 19.3 0.00 0.00 0.00 36 1008.3
20260503213003 25 238 8.0 27.4 0.00 0.00 0.00 35 1008.3
20260503212503 25 246 8.0 32.2 0.00 0.00 0.00 34 1008.3
20260503212217 26 227 4.8 32.2 0.00 0.00 0.00 36 1008.4
20260503211716 26 215 9.7 25.7 0.00 0.00 0.00 34 1008.5
20260503211003 25 258 6.4 19.3 0.00 0.00 0.00 35 1008.6
20260503210503 26 234 6.4 19.3 0.00 0.00 0.00 35 1008.6
20260503210003 26 226 6.4 17.7 0.00 0.00 0.00 33 1008.7
20260503205503 25 247 4.8 22.5 0.00 0.00 0.00 34 1008.8
20260503205003 25 222 9.7 22.5 0.00 0.00 0.00 34 1009.0
20260503204503 25 244 4.8 20.9 0.00 0.00 0.00 35 1009.0
20260503204003 25 229 8.0 20.9 0.00 0.00 0.00 33 1009.0
20260503203503 25 249 4.8 29.0 0.00 0.00 0.00 34 1009.1
20260503203003 25 244 6.4 29.0 0.00 0.00 0.00 35 1009.1
20260503202503 25 224 6.4 24.1 0.00 0.00 0.00 34 1009.1
20260503202003 25 219 6.4 20.9 0.00 0.00 0.00 36 1009.2
20260503201503 25 190 12.9 20.9 0.00 0.00 0.00 36 1009.4
20260503201003 25 233 6.4 27.4 0.00 0.00 0.00 37 1009.4
20260503200503 25 207 8.0 27.4 0.00 0.00 0.00 34 1009.4
20260503200003 24 189 9.7 27.4 0.00 0.00 0.00 36 1009.4
20260503195503 24 182 12.9 24.1 0.00 0.00 0.00 35 1009.5
20260503195217 24 188 9.7 20.9 0.00 0.00 0.00 37 1009.5
20260503194718 23 194 11.3 33.8 0.00 0.00 0.00 36 1009.6
20260503194003 23 208 11.3 35.4 0.00 0.00 0.00 37 1009.8
20260503193718 24 184 17.7 35.4 0.00 0.00 0.00 35 1009.9
20260503193003 23 186 14.5 27.4 0.00 0.00 0.00 36 1010.0
20260503192503 23 225 6.4 27.4 0.00 0.00 0.00 36 1010.1
20260503192217 23 194 9.7 27.4 0.00 0.00 0.00 36 1010.2
20260503191718 23 196 14.5 30.6 0.00 0.00 0.00 35 1010.2
20260503191003 23 212 9.7 22.5 0.00 0.00 0.00 35 1010.4
20260503190503 23 209 8.0 27.4 0.00 0.00 0.00 37 1010.5
20260503190003 23 179 16.1 27.4 0.00 0.00 0.00 36 1010.7
20260503185503 23 202 9.7 29.0 0.00 0.00 0.00 35 1010.8
20260503185217 23 193 11.3 29.0 0.00 0.00 0.00 36 1010.9
20260503184503 23 220 8.0 30.6 0.00 0.00 0.00 36 1011.0
20260503184003 23 196 12.9 27.4 0.00 0.00 0.00 36 1011.1
20260503183717 23 219 8.0 27.4 0.00 0.00 0.00 36 1011.1
20260503183003 22 195 14.5 30.6 0.00 0.00 0.00 36 1011.3
20260503182503 22 205 8.0 30.6 0.00 0.00 0.00 37 1011.6
20260503182004 22 206 9.7 25.7 0.00 0.00 0.00 36 1011.8
20260503181504 22 204 11.3 29.0 0.00 0.00 0.00 36 1011.8
20260503181003 22 189 11.3 29.0 0.00 0.00 0.00 35 1011.9
20260503180503 22 208 6.4 24.1 0.00 0.00 0.00 35 1012.1